TimeCST,TemperatureF,Dew PointF,Humidity,Sea Level PressureIn,VisibilityMPH,Wind Direction,Wind SpeedMPH,Gust SpeedMPH,PrecipitationIn,Events,Conditions,WindDirDegrees,DateUTC
12:15 AM,37.4,33.8,87,30.17,10.0,Calm,Calm,-,N/A,,Clear,0,2012-11-08 06:15:00
12:35 AM,37.4,33.8,87,30.17,10.0,Calm,Calm,-,N/A,,Clear,0,2012-11-08 06:35:00
12:55 AM,37.4,35.6,93,30.17,10.0,Calm,Calm,-,N/A,,Clear,0,2012-11-08 06:55:00
1:15 AM,37.4,35.6,93,30.17,10.0,Calm,Calm,-,N/A,,Clear,0,2012-11-08 07:15:00
1:35 AM,35.6,35.6,100,30.18,10.0,Calm,Calm,-,N/A,,Clear,0,2012-11-08 07:35:00
1:55 AM,35.6,33.8,93,30.18,10.0,Calm,Calm,-,N/A,,Clear,0,2012-11-08 07:55:00
2:15 AM,35.6,35.6,100,30.18,10.0,Calm,Calm,-,N/A,,Clear,0,2012-11-08 08:15:00
2:35 AM,35.6,33.8,93,30.19,10.0,Calm,Calm,-,N/A,,Clear,0,2012-11-08 08:35:00
2:55 AM,35.6,35.6,100,30.19,10.0,Calm,Calm,-,N/A,,Clear,0,2012-11-08 08:55:00
3:15 AM,35.6,35.6,100,30.19,10.0,Calm,Calm,-,N/A,,Clear,0,2012-11-08 09:15:00
3:35 AM,33.8,33.8,100,30.19,10.0,Calm,Calm,-,N/A,,Clear,0,2012-11-08 09:35:00
3:55 AM,35.6,35.6,100,30.19,10.0,Calm,Calm,-,N/A,,Clear,0,2012-11-08 09:55:00
4:15 AM,33.8,33.8,100,30.19,10.0,Calm,Calm,-,N/A,,Clear,0,2012-11-08 10:15:00
4:35 AM,35.6,33.8,93,30.19,10.0,Calm,Calm,-,N/A,,Clear,0,2012-11-08 10:35:00
4:55 AM,35.6,35.6,100,30.19,10.0,Calm,Calm,-,N/A,,Clear,0,2012-11-08 10:55:00
5:15 AM,33.8,33.8,100,30.19,10.0,Calm,Calm,-,N/A,,Clear,0,2012-11-08 11:15:00
5:35 AM,33.8,33.8,100,30.19,10.0,Calm,Calm,-,N/A,,Clear,0,2012-11-08 11:35:00
5:55 AM,35.6,35.6,100,30.20,10.0,Calm,Calm,-,N/A,,Clear,0,2012-11-08 11:55:00
6:15 AM,33.8,33.8,100,30.20,10.0,Calm,Calm,-,N/A,,Clear,0,2012-11-08 12:15:00
6:35 AM,33.8,33.8,100,30.21,10.0,Calm,Calm,-,N/A,,Clear,0,2012-11-08 12:35:00
6:55 AM,35.6,35.6,100,30.21,10.0,Calm,Calm,-,N/A,,Clear,0,2012-11-08 12:55:00
7:15 AM,35.6,35.6,100,30.22,10.0,Calm,Calm,-,N/A,,Clear,0,2012-11-08 13:15:00
7:35 AM,35.6,35.6,100,30.22,10.0,Calm,Calm,-,N/A,,Clear,0,2012-11-08 13:35:00
7:55 AM,39.2,39.2,100,30.22,10.0,Calm,Calm,-,N/A,,Clear,0,2012-11-08 13:55:00
8:15 AM,44.6,41.0,87,30.23,10.0,Calm,Calm,-,N/A,,Clear,0,2012-11-08 14:15:00
8:35 AM,46.4,37.4,71,30.23,10.0,Calm,Calm,-,N/A,,Clear,0,2012-11-08 14:35:00
8:55 AM,50.0,37.4,62,30.23,10.0,Calm,Calm,-,N/A,,Clear,0,2012-11-08 14:55:00
9:15 AM,51.8,35.6,54,30.23,10.0,Calm,Calm,-,N/A,,Clear,0,2012-11-08 15:15:00
9:35 AM,53.6,35.6,51,30.23,10.0,SE,4.6,-,N/A,,Clear,140,2012-11-08 15:35:00
9:55 AM,59.0,33.8,39,30.23,10.0,South,3.5,-,N/A,,Clear,190,2012-11-08 15:55:00
10:15 AM,59.0,33.8,39,30.22,10.0,South,5.8,-,N/A,,Clear,180,2012-11-08 16:15:00
10:35 AM,59.0,33.8,39,30.21,10.0,South,4.6,-,N/A,,Clear,190,2012-11-08 16:35:00
10:55 AM,60.8,33.8,36,30.20,10.0,SSE,3.5,-,N/A,,Clear,160,2012-11-08 16:55:00
11:15 AM,62.6,33.8,34,30.19,10.0,SE,4.6,-,N/A,,Clear,130,2012-11-08 17:15:00
11:35 AM,64.4,33.8,32,30.18,10.0,ESE,3.5,-,N/A,,Clear,120,2012-11-08 17:35:00
11:55 AM,64.4,32.0,30,30.16,10.0,Calm,Calm,-,N/A,,Clear,0,2012-11-08 17:55:00
12:15 PM,68.0,33.8,28,30.15,10.0,South,4.6,-,N/A,,Clear,180,2012-11-08 18:15:00
12:35 PM,68.0,32.0,26,30.14,10.0,SSE,4.6,-,N/A,,Clear,160,2012-11-08 18:35:00
12:55 PM,68.0,32.0,26,30.12,10.0,SSE,8.1,-,N/A,,Clear,160,2012-11-08 18:55:00
1:15 PM,69.8,33.8,27,30.11,10.0,South,3.5,-,N/A,,Clear,170,2012-11-08 19:15:00
1:35 PM,69.8,33.8,27,30.10,10.0,SE,5.8,-,N/A,,Clear,130,2012-11-08 19:35:00
1:55 PM,69.8,35.6,28,30.09,10.0,SSE,4.6,-,N/A,,Clear,160,2012-11-08 19:55:00
2:15 PM,69.8,35.6,28,30.08,10.0,Calm,Calm,-,N/A,,Clear,0,2012-11-08 20:15:00
2:35 PM,69.8,37.4,31,30.08,10.0,SSE,4.6,-,N/A,,Clear,150,2012-11-08 20:35:00
2:55 PM,71.6,37.4,29,30.07,10.0,SE,3.5,-,N/A,,Clear,140,2012-11-08 20:55:00
3:15 PM,69.8,37.4,31,30.07,10.0,SSE,8.1,-,N/A,,Clear,160,2012-11-08 21:15:00
3:35 PM,69.8,37.4,31,30.07,10.0,South,5.8,-,N/A,,Clear,180,2012-11-08 21:35:00
4:15 PM,68.0,37.4,33,30.06,10.0,SE,6.9,-,N/A,,Clear,140,2012-11-08 22:15:00
4:35 PM,68.0,39.2,35,30.06,10.0,SSE,6.9,-,N/A,,Clear,150,2012-11-08 22:35:00
4:55 PM,66.2,37.4,35,30.07,10.0,SE,4.6,-,N/A,,Clear,140,2012-11-08 22:55:00
5:15 PM,64.4,37.4,37,30.06,10.0,SE,3.5,-,N/A,,Clear,130,2012-11-08 23:15:00
5:35 PM,62.6,37.4,39,30.06,10.0,SE,5.8,-,N/A,,Clear,140,2012-11-08 23:35:00
5:55 PM,62.6,39.2,42,30.07,10.0,SE,3.5,-,N/A,,Clear,130,2012-11-08 23:55:00
6:15 PM,62.6,39.2,42,30.07,10.0,Calm,Calm,-,N/A,,Clear,0,2012-11-09 00:15:00
6:35 PM,60.8,39.2,45,30.08,10.0,Calm,Calm,-,N/A,,Clear,0,2012-11-09 00:35:00
6:55 PM,60.8,39.2,45,30.09,10.0,ESE,4.6,-,N/A,,Clear,110,2012-11-09 00:55:00
7:15 PM,60.8,41.0,48,30.09,10.0,SE,5.8,-,N/A,,Clear,130,2012-11-09 01:15:00
7:35 PM,60.8,41.0,48,30.09,10.0,ESE,3.5,-,N/A,,Clear,120,2012-11-09 01:35:00
7:55 PM,60.8,41.0,48,30.09,10.0,Calm,Calm,-,N/A,,Clear,0,2012-11-09 01:55:00
8:35 PM,62.6,41.0,45,30.09,10.0,SE,4.6,-,N/A,,Clear,130,2012-11-09 02:35:00
8:55 PM,60.8,41.0,48,30.09,10.0,SE,3.5,-,N/A,,Clear,130,2012-11-09 02:55:00
9:15 PM,62.6,41.0,45,30.09,10.0,Calm,Calm,-,N/A,,Clear,0,2012-11-09 03:15:00
9:35 PM,62.6,41.0,45,30.09,10.0,SE,4.6,-,N/A,,Clear,140,2012-11-09 03:35:00
10:15 PM,62.6,41.0,45,30.08,10.0,SSE,3.5,-,N/A,,Clear,160,2012-11-09 04:15:00
10:35 PM,62.6,41.0,45,30.08,10.0,South,5.8,-,N/A,,Clear,170,2012-11-09 04:35:00
10:55 PM,62.6,41.0,45,30.07,10.0,SSE,10.4,16.1,N/A,,Clear,160,2012-11-09 04:55:00
11:15 PM,62.6,41.0,45,30.08,10.0,SSE,8.1,-,N/A,,Clear,160,2012-11-09 05:15:00
11:35 PM,62.6,41.0,45,30.07,10.0,South,9.2,-,N/A,,Clear,170,2012-11-09 05:35:00
11:55 PM,62.6,41.0,45,30.07,10.0,South,6.9,-,N/A,,Clear,190,2012-11-09 05:55:00